This is the latest recevied weather packets stored in our database for station/object WX2NJ. If no packets are shown the sender has not sent any weather packets the latest 10 day(s).
| Time | Temp. | Humidity | Pressure | Rain* | Wind** | Luminosity | Snow |
|---|---|---|---|---|---|---|---|
| 1777632824 | 6.67° C | 92% | 1017.1 hPa | 0 mm | - | 66 W/m² | - |
| 1777632520 | 6.11° C | 92% | 1017 hPa | 0 mm | - | 43 W/m² | - |
| 1777632218 | 5.56° C | 92% | 1017.2 hPa | 0 mm | - | 31 W/m² | - |
| 1777631915 | 5° C | 92% | 1016.9 hPa | 0 mm | - | 20 W/m² | - |
| 1777631614 | 5° C | 92% | 1017.1 hPa | 0 mm | - | 16 W/m² | - |
| 1777631310 | 5° C | 92% | 1017.1 hPa | 0 mm | - | 15 W/m² | - |
| 1777631007 | 5° C | 92% | 1016.9 hPa | 0 mm | - | 11 W/m² | - |
| 1777630703 | 5° C | 92% | 1016.8 hPa | 0 mm | - | 9 W/m² | - |
| 1777630400 | 5° C | 92% | 1016.9 hPa | 0 mm | - | 6 W/m² | - |
| 1777630098 | 5° C | 92% | 1017 hPa | 0 mm | - | 2 W/m² | - |
| 1777629795 | 5° C | 92% | 1016.6 hPa | 0 mm | - | 1 W/m² | - |
| 1777629492 | 5° C | 92% | 1016.7 hPa | 0 mm | - | 0 W/m² | - |
| 1777629188 | 5° C | 92% | 1016.5 hPa | 0 mm | - | 0 W/m² | - |
| 1777628885 | 5° C | 92% | 1016.7 hPa | 0 mm | - | 0 W/m² | - |
| 1777628581 | 5° C | 92% | 1016.5 hPa | 0 mm | - | 0 W/m² | - |
| 1777628276 | 5° C | 92% | 1016.5 hPa | 0 mm | - | 0 W/m² | - |
| 1777627973 | 5.56° C | 92% | 1016.3 hPa | 0 mm | - | 0 W/m² | - |
| 1777627667 | 5° C | 92% | 1016.1 hPa | 0 mm | - | 0 W/m² | - |
| 1777627366 | 5.56° C | 92% | 1016.2 hPa | 0 mm | - | 0 W/m² | - |
| 1777627064 | 5.56° C | 92% | 1016.2 hPa | 0 mm | - | 0 W/m² | - |
| 1777626759 | 5.56° C | 92% | 1016 hPa | 0 mm | - | 0 W/m² | - |
| 1777626456 | 5.56° C | 92% | 1015.8 hPa | 0 mm | - | 0 W/m² | - |
| 1777626155 | 5.56° C | 92% | 1015.9 hPa | 0 mm | - | 0 W/m² | - |
| 1777625855 | 6.11° C | 92% | 1015.7 hPa | 0 mm | - | 0 W/m² | - |
| 1777625551 | 6.11° C | 92% | 1015.8 hPa | 0 mm | - | 0 W/m² | - |
* Rain latest hour (hover to see other rain measurements)
** Current wind speed in m/s (hover to see current wind gust speed)